Location: ??????
(47.9975°N, 38.8857°E)
Time: 22:34:33
(UTC+00:00)

Daily predictions for brighter satellites

Satellite Brightness Start Highest point End
(mag) Time Altitude Azimuth Time Altitude Azimuth Time Altitude Azimuth
NOSS 3-2 (A) 4.1 15:34:10 10° NW 15:41:33 74° NE 15:49:58 10° SE
MOS 1 Rocket 4.2 15:41:16 10° NE 15:44:43 22° E 15:48:05 10° SE
Cosmos 1674 4.2 15:43:22 10° NNE 15:46:10 19° ENE 15:48:57 10° ESE
In-Cosmos 22 4.4 15:41:41 10° N 15:46:50 47° ENE 15:52:01 10° SSE
PSLV R/B 4.1 15:43:52 10° NNE 15:48:05 86° WNW 15:52:17 10° SSW
ARGOS 3.8 15:43:33 10° SE 15:48:21 35° ENE 15:53:10 10° N
Cosmos 1048 Rocket 4.3 15:45:04 10° NNW 15:50:17 53° ENE 15:55:31 10° SE
CZ-2C R/B 4.1 15:46:50 10° NE 15:50:23 17° E 15:53:56 10° SE
Cosmos 2082 Rocket 4.1 15:50:47 10° N 15:53:25 13° NNE 15:56:04 10° ENE
Exosat Rocket 4.4 15:54:33 10° SSE 15:58:58 26° ESE 16:03:05 10° NE
Cosmos 2151 Rocket 4.1 15:57:46 10° SSE 16:01:55 39° E 16:06:07 10° NNE
Cosmos 1975 Rocket 3.8 15:58:35 10° NNW 16:02:51 58° W 16:07:04 10° S
BREEZE-M TANK 4.3 15:50:14 10° SW 16:03:17 47° SSE 16:07:05 12° E
Cosmos 494 Rocket 4.4 15:58:26 10° NNW 16:03:31 45° ENE 16:08:34 10° SE
Lacrosse 5 rocket 3.2 16:01:09 10° WNW 16:04:46 25° N 16:08:30 10° NE
Nadezhda 4 Rocket 4.1 16:02:11 10° N 16:08:10 52° ENE 16:14:07 10° SSE
HJ-1C 3.4 16:07:47 10° SSE 16:11:00 59° ENE 16:14:17 10° N
COSMO-SKYMED 1 3.7 16:08:02 10° N 16:12:15 49° WNW 16:16:25 10° SW
Ariane Rocket 3.8 16:08:19 10° SE 16:12:48 33° ENE 16:17:19 10° N
H-2A R/B 2.0 16:08:15 10° SSE 16:13:12 67° ENE 16:18:20 10° N
SL-08 RB Rocket 4.2 16:12:36 10° SE 16:16:49 38° ENE 16:21:01 10° N
Cosmos 1805 4.2 16:14:07 10° SE 16:17:21 25° E 16:20:38 10° NNE
Cosmos 2263 Rocket 3.8 16:12:37 10° WSW 16:17:46 37° NW 16:22:58 10° NNE
SJ 16-02 4.3 16:16:47 10° W 16:19:20 15° NW 16:21:54 10° NNW
NOSS 3-2 (C) 4.1 16:12:19 10° NW 16:19:46 80° NE 16:28:14 10° SE
COSMOS 2406 4.1 16:15:00 10° NNW 16:20:02 31° NE 16:23:46 16° ESE
Cosmos 1844 Rocket 2.6 16:16:30 10° SSW 16:22:00 66° ESE 16:27:34 10° NNE
OBJECT-B 2.8 16:22:24 14° ENE 16:22:27 14° ENE 16:24:10 10° NNE
USA 116 3.6 16:19:16 10° NNE 16:22:55 87° ESE 16:27:03 10° SSW
NOSS 3-4 (A) 4.0 16:19:56 10° S 16:25:06 33° ESE 16:30:32 10° NE
NOSS 3-4 (C) 4.0 16:20:03 10° S 16:25:12 32° ESE 16:30:38 10° NE
Cosmos 372 Rocket 4.4 16:20:24 10° SSW 16:25:37 68° WNW 16:30:50 10° NNE
Cosmos 2278 Rocket 3.9 16:28:25 13° ENE 16:28:25 13° ENE 16:29:36 10° ENE
Cosmos 2034 Rocket 4.0 16:20:12 10° S 16:26:27 64° E 16:32:43 10° NNE
KORONAS-FOTON 4.1 16:23:35 10° N 16:27:26 48° ENE 16:31:13 10° SSE
Cosmos 1844 3.7 16:23:38 10° S 16:29:14 61° ESE 16:34:47 10° NNE
Cosmos 1707 3.8 16:26:15 10° NNW 16:29:57 47° W 16:33:38 10° SSW
Meteor 2-5 Rocket 4.1 16:25:06 10° N 16:30:31 44° ENE 16:35:44 11° SE
Meteor 1-12 Rocket 4.4 16:25:55 10° SSW 16:31:49 83° WNW 16:37:37 10° N
Cosmos 1626 3.3 16:29:03 10° NNE 16:32:08 24° ENE 16:32:54 23° E
Meteor 1-24 Rocket 4.3 16:28:14 10° N 16:33:23 36° ENE 16:37:11 17° SE
Lacrosse 4 Rocket 3.2 16:36:23 10° N 16:39:07 17° NE 16:40:15 15° ENE
CENTAUR R/B 3.2 16:31:04 10° NW 16:39:07 89° SW 16:47:32 12° SE
ISS -3.0 16:36:33 10° W 16:39:51 49° N 16:41:51 21° ENE
USA 186 1.9 16:39:33 24° SE 16:41:15 53° ENE 16:44:30 10° N
Cosmos 1300 Rocket 4.2 16:38:35 10° SSW 16:42:57 61° WNW 16:47:22 10° N
Okean 1 Rocket 3.2 16:41:38 10° S 16:45:58 52° E 16:50:21 10° NNE
Cosmos 1833 Rocket 3.4 16:40:47 10° NNW 16:45:58 35° NE 16:48:29 24° E
Cosmos 2298 Rocket 4.4 16:41:02 10° SSW 16:46:20 67° WNW 16:51:40 10° NNE
ATLAS 2AS CENTAUR R/B 3.2 16:40:04 10° S 16:47:34 48° ESE 16:55:03 10° NE
Resurs 01 Rocket 2.9 16:48:17 22° ENE 16:48:45 22° ENE 16:52:11 10° NNE
SL-14 R/B 3.9 16:46:42 10° N 16:50:21 35° ENE 16:51:00 33° E
CSL-04 Rocket 4.5 16:45:05 10° S 16:50:24 53° W 16:55:50 10° NNW
ATLAS 3B R/B 3.1 16:44:43 10° NW 16:51:21 50° NE 16:55:19 25° ESE
Cosmos 1634 Rocket 4.2 16:48:26 10° SSE 16:54:17 48° E 17:00:13 10° NNE
BREEZE-M DEB (TANK) 3.9 16:52:36 10° SW 16:56:07 67° SE 17:08:38 10° ENE
Okean 2 Rocket 4.4 16:52:58 10° SSW 16:57:15 43° WNW 17:01:32 10° N
Cosmos 1025 Rocket 4.5 16:53:28 10° NNW 16:57:35 39° W 17:01:40 10° SSW
Cosmos 1766 3.2 16:54:57 10° S 16:58:48 59° E 17:02:43 10° NNE
SPOT 3 Rocket 4.0 16:59:31 31° ESE 17:01:12 40° ENE 17:06:00 10° N
Milstar 3 Cent rocket 4.4 17:00:25 10° SSW 17:02:04 11° S 17:03:34 10° S
EP 2 4.5 17:01:11 10° SSW 17:03:59 68° SSE 17:03:59 68° SSE
ARIANE 5 R/B 4.3 17:04:58 18° NE 17:04:58 18° NE 17:07:25 10° NNE
Cosmos 1125 Rocket 3.8 17:01:53 10° SSW 17:07:11 71° WNW 17:12:32 10° NNE
Cosmos 2195 Rocket 4.4 17:03:46 10° N 17:10:04 82° E 17:15:30 14° SSE
Abrixas rocket 3.1 17:08:35 10° W 17:10:55 33° SW 17:10:55 33° SW
Cosmos 1627 Rocket 4.5 17:05:06 10° N 17:11:32 77° E 17:16:39 17° SSE
Resurs 1-3 3.8 17:11:30 45° ESE 17:12:12 50° ENE 17:16:29 10° N
CREW DRAGON DEMO-1 DEB 3.8 17:09:35 10° WNW 17:12:23 36° SW 17:12:23 36° SW
Cosmos 2026 Rocket 4.0 17:06:33 10° N 17:12:57 75° E 17:17:41 19° SSE
Cosmos 1092 Rocket 4.0 17:06:50 10° N 17:13:02 86° W 17:19:15 10° S
Cosmos 2285 Rocket 4.0 17:06:55 10° SSW 17:13:14 84° WNW 17:19:39 10° NNE
Cosmos 1892 Rocket 3.7 17:09:48 10° N 17:14:01 48° ENE 17:14:14 47° E
SJ-6B 2.6 17:12:54 39° S 17:14:12 83° WSW 17:18:01 10° NNW
Cosmos 1428 Rocket 4.4 17:15:15 10° N 17:21:34 81° E 17:25:34 24° SSE
Cosmos 1674 4.1 17:18:16 10° NNW 17:21:51 37° W 17:25:23 10° SSW
MOS 1 Rocket 4.5 17:19:04 10° N 17:23:09 39° WNW 17:27:08 10° SW
TSX-5 4.0 17:23:08 10° SSW 17:27:02 87° WNW 17:32:07 10° NNE
ARGOS 4.4 17:23:33 10° SSW 17:28:32 39° W 17:33:35 10° NNW
Cosmos 2279 Rocket 4.0 17:28:28 35° SSE 17:30:54 57° E 17:37:01 10° NNE
CZ-2C R/B 2.8 17:25:43 10° NNE 17:31:19 81° WNW 17:36:56 10° SSW
MetOp-B 4.5 17:36:07 45° ENE 17:36:12 45° ENE 17:41:17 10° N
Cosmos 2082 Rocket 2.4 17:33:29 10° NNW 17:38:57 49° NE 17:39:26 48° ENE
Cosmos 1340 Rocket 3.0 17:39:40 65° N 17:39:40 65° N 17:43:10 10° N
Cosmos 2098 Rocket 4.0 17:33:49 10° N 17:40:25 51° ENE 17:40:52 50° E
Cosmos 1733 4.1 17:38:59 19° SW 17:41:29 49° WNW 17:45:14 10° N
DMSP B5D2-2 4.2 17:36:28 10° N 17:41:46 76° WNW 17:47:02 10° SSW
Spot 2 Rocket 4.4 17:45:02 34° NE 17:45:02 34° NE 17:48:50 10° N
Cosmos 2142 Rocket 4.3 17:40:01 21° S 17:44:27 81° E 17:50:41 10° N
Lacrosse 5 rocket 2.6 17:40:49 10° NW 17:44:55 35° NNE 17:45:05 35° NNE
Ariane Rocket 4.3 17:47:53 15° SSW 17:51:41 38° W 17:56:26 10° NNW
OBJECT-B 2.8 17:55:36 29° NW 17:55:36 29° NW 17:57:35 10° NNW
Terra 3.9 18:03:57 16° NNE 18:03:57 16° NNE 18:05:30 10° NNE
Cosmos 909 Rocket 3.9 17:55:52 10° NW 18:02:25 70° NE 18:03:01 66° E
COSMOS 2406 3.7 17:59:07 10° NW 18:04:37 53° WSW 18:05:51 44° SSW
Okean 1-7 Rocket 4.0 18:00:24 10° NNW 18:04:24 62° NW 18:04:24 62° NW
SPOT 1/Viking Rocket 4.3 18:08:05 42° NNE 18:08:05 42° NNE 18:11:52 10° N
Cosmos 1626 4.1 18:04:14 10° NNW 18:07:20 26° W 18:07:28 26° W
Cosmos 1455 Rocket 4.4 18:10:13 34° N 18:10:13 34° N 18:12:46 10° N
Cosmos 2278 Rocket 2.1 18:10:00 80° NNE 18:10:00 80° NNE 18:15:22 10° NNE
NOSS 3-4 (A) 3.9 18:09:45 10° WSW 18:15:36 58° NW 18:21:59 10° NE
NOSS 3-4 (C) 3.9 18:09:51 10° WSW 18:15:43 58° NW 18:22:05 10° NE
Cosmos 2266 Rocket 3.9 18:10:27 10° N 18:15:59 69° NE 18:15:59 69° NE
ISS -0.9 18:13:44 10° WNW 18:14:49 18° WNW 18:14:49 18° WNW
Lacrosse 4 Rocket 2.9 18:14:12 10° NW 18:16:33 33° NW 18:16:33 33° NW
Resurs 01 Rocket 2.8 18:25:52 41° WNW 18:25:52 41° WNW 18:29:17 10° NNW
Cosmos 1833 Rocket 3.4 18:24:40 10° NW 18:30:02 45° WSW 18:30:12 45° WSW
Cosmos 2251 Rocket 4.1 18:28:50 10° NNW 18:33:15 55° WNW 18:33:15 55° WNW
ERS-1 Rocket 4.3 18:37:39 32° N 18:37:39 32° N 18:40:26 10° N
ATLAS 2AS CENTAUR R/B 3.6 18:30:46 10° WSW 18:38:36 57° NW 18:46:17 10° NE
ARIANE 5 R/B 4.4 18:42:32 28° NW 18:42:32 28° NW 18:44:45 10° NNW
ATLAS 3B R/B 3.2 18:35:32 10° NW 18:42:06 48° WSW 18:42:35 48° SW
SPOT 5 4.4 18:54:34 35° N 18:54:34 35° N 18:57:37 10° N
Cosmos 2082 Rocket 3.9 19:17:59 10° NW 19:21:17 26° WNW 19:21:17 26° WNW
Lacrosse 5 rocket 4.4 19:19:56 10° NW 19:20:43 15° WNW 19:20:43 15° WNW
Terra 4.4 19:42:51 18° NNW 19:42:51 18° NNW 19:44:04 10° NNW
Cosmos 2278 Rocket 4.4 19:51:32 14° W 19:54:34 21° NW 19:58:46 10° N
CZ-4C R/B 4.4 21:00:08 23° N 21:00:08 23° N 21:03:42 10° NE
SL-16 R/B 4.2 22:05:31 29° NNE 22:05:31 29° NNE 22:08:53 10° N
USA 234 4.2 22:49:17 10° ENE 22:55:22 43° N 22:56:08 41° N
ADEOS II 4.1 22:53:49 10° NE 22:56:28 22° ENE 22:56:28 22° ENE
SJ 16-02 4.3 23:01:40 10° N 23:02:26 13° NNE 23:02:26 13° NNE
Cosmos 1697 Rocket 4.0 23:17:28 35° NE 23:17:28 35° NE 23:20:41 10° NNE
Cosmos 1980 Rocket 3.5 23:23:46 37° ENE 23:23:46 37° ENE 23:27:29 10° NE
Cosmos 2263 Rocket 3.4 23:17:53 10° NNW 23:22:18 38° NNE 23:22:18 38° NNE
Lacrosse 5 3.3 23:43:16 35° NE 23:43:16 35° NE 23:46:19 10° NE
SL-16 R/B 4.0 23:42:52 22° ESE 23:43:44 23° ESE 23:48:04 10° NE
SL-16 R/B 4.2 23:50:37 21° NW 23:50:37 21° NW 23:52:41 10° NNW
Resurs 1-4 Rocket 3.5 23:43:02 10° N 23:45:52 31° N 23:45:52 31° N
CZ-2D R/B 3.5 23:49:23 10° N 23:52:17 30° NNW 23:52:17 30° NNW
